Regional Weather Roundup
Issued by NWS

Home | Current Version | Previous Version | Text Only | Print | Product List | Glossary Off
Versions: 1 2 3 4 5 6 7 8 9 10 11 12 13 14 15 16 17 18 19 20 21 22 23 24 25 26 27

000
ASUS45 KBOU 141210
RWRCO

WEATHER ROUNDUP FOR COLORADO
NATIONAL WEATHER SERVICE DENVER/BOULDER CO
500 AM MST THU DEC 14 2017

NOTE: "FAIR" INDICATES FEW OR NO CLOUDS BELOW 12000 FEET WITH NO
SIGNIFICANT WEATHER AND/OR OBSTRUCTIONS TO VISIBILITY.

COZ001>005-013-030-031-141300-
...NORTHWEST COLORADO...

CITY           SKY/WX    TMP DP  RH WIND       PRES   REMARKS
CRAIG          FAIR      26  19  74 SW3       30.20R
HAYDEN         CLOUDY    24  23  96 W6        30.19R WCI  17
MEEKER         MOCLDY    29  22  75 E8        30.18R WCI  21
RABBIT EARS PA FAIR      14  12  92 NE10G16   30.11R WCI   1
STEAMBOAT SPGS MOCLDY    26  25  99 CALM      30.16R
WALDEN         FAIR      18  14  86 NW15      30.16R WCI   3
$$

COZ006>008-011-141300-
...WEST CENTRAL VALLEYS...

CITY           SKY/WX    TMP DP  RH WIND       PRES   REMARKS
GRAND JUNCTION MOCLDY    38  28  67 N7        30.12S
MONTROSE       FLURRIES  32  29  88 S8        30.12F WCI  25
EAGLE          LGT SNOW  27  25  92 E5        30.16R FOG     WCI  22
RIFLE          MOCLDY    31  28  89 CALM      30.14R
DELTA          MOCLDY    38  28  68 NE8       30.11R
NUCLA          CLOUDY    36  25  64 CALM      30.10F
$$

COZ017>023-064>068-141300-
...SOUTHWEST COLORADO...

CITY           SKY/WX    TMP DP  RH WIND       PRES   REMARKS
DURANGO        CLOUDY    25   9  50 E6        29.96F WCI  18
CORTEZ         CLOUDY    37  28  70 NW9       30.00F
PAGOSA SPRINGS CLOUDY    31   5  33 CALM      29.99R
TELLURIDE      CLOUDY    26  13  57 W3        30.06S
WOLF CREEK PAS SNOW      18  18 100 NW5       30.07S VSB 1/2 WCI  11
$$

COZ009-010-012-014-032>034-037-058>063-141300-
...CENTRAL COLORADO...

CITY           SKY/WX    TMP DP  RH WIND       PRES   REMARKS
ASPEN          LGT SNOW  27  25  92 NW3       30.08S FOG
BUENA VISTA    LGT SNOW  26  23  89 CALM      30.11R
COPPER MTN     NOT AVBL
BERTHOUD PASS  LGT SNOW   9  -4  56 W12       30.07S VSB 1   WCI  -6
COTTONWOOD PAS LGT SNOW  27  23  86 CALM      30.09R VSB 1
GUNNISON       FLURRIES  30  22  72 SW7       30.05R WCI  23
KREMMLING      CLOUDY    32  21  64 NW7       30.14S WCI  26
LEADVILLE      LGT SNOW  19  16  88 CALM      30.06R VSB 3/4
MONARCH PASS   HVY SNOW  12  10  92 NE24      30.11F VSB 1/4 WCI  -8
SALIDA         CLOUDY    28  26  94 CALM      30.19R
SUNLIGHT       LGT SNOW  19  18  93 NE5       30.13S WCI  13
WILKERSON PASS LGT SNOW  14  10  85 NE6       30.10R WCI   5
$$

COZ069>075-141300-
...SAN LUIS VALLEY/SANGRE DE CRISTO MOUNTAINS...

CITY           SKY/WX    TMP DP  RH WIND       PRES   REMARKS
ALAMOSA        CLOUDY    32  18  56 E8        30.00R WCI  25
DEL NORTE      CLOUDY    30  22  70 N6        30.03R WCI  24
LA VETA PASS   SNOW      16  12  86 NE22G28     N/A  VSB 1/2 WCI  -2
SAGUACHE       LGT SNOW  30  30 100 S3        30.03S
$$

COZ035-036-038>040-141300-
...NORTHERN COLORADO FRONT RANGE...

CITY           SKY/WX    TMP DP  RH WIND       PRES   REMARKS
DENVER INTL AP LGT SNOW  29  26  89 NW8       30.19S FOG     WCI  21
DMNS CITY PARK NOT AVBL
AURORA         LGT SNOW  28  28  99 NW3       30.20S FOG
FRONT RANGE AP LGT SNOW  31  29  94 W6        30.20S WCI  25
ERIE MUNI ARPT LGT SNOW  31  29  94 CALM      30.26S
BOULDER MUN AP LGT SNOW  32  30  93 S3        30.20S
CENTENNIAL     LGT SNOW  27  26  96 NW6       30.20R FOG     WCI  20
BROOMFIELD     LGT SNOW  30  28  93 SW3       30.20F
FORT COLLINS   CLOUDY    28  26  92 SW5       30.19S WCI  23
LONGMONT       LGT SNOW  33  31  93 SW7       30.21F WCI  26
$$

COZ041-046-047-076>085-087-088-141300-
...PIKES PEAK/PALMER DIVIDE AND SOUTHERN FOOTHILLS...

CITY           SKY/WX    TMP DP  RH WIND       PRES   REMARKS
COLO. SPRINGS  CLOUDY    30  24  78 N15       30.17R WCI  19
A. F. ACADEMY  MIX PCPN  26  23  87 N15       30.16R WCI  14
SCHRIEVER AFB  FRZ RAIN  28  24  84 N9        30.17R WCI  19
CHEYENNE MTN   LGT SNOW  26  23  89 NW13G18   30.09R WCI  15
ELLICOTT       LGT SNOW N/A N/A N/A N10       30.15R
FALCON         CLOUDY    26  21  83 N12G20    30.16R WCI  15
FORT CARSON    CLOUDY    30  27  86 N7        30.16R WCI  23
LIMON          LGT SNOW  28  26  92 N21G28    30.17R FOG     WCI  15
MONUMENT HILL  LGT SNOW  23  21  93 N9G17     30.18R WCI  13
CANON CITY     LGT SNOW  32  32 100 SE7       30.18R WCI  26
WALSENBURG     CLOUDY    30  27  86 NE13G18   30.17R WCI  20
TRINIDAD       CLOUDY    32  17  54 NE16      30.15R WCI  21
$$

COZ042>045-048>051-090-091-141300-
...NORTHEAST COLORADO...

CITY           SKY/WX    TMP DP  RH WIND       PRES   REMARKS
GREELEY ARPT   FAIR      32  23  69 N7        30.20S WCI  26
AKRON          LGT SNOW  30  27  88 NW13      30.15S FOG     WCI  20
BURLINGTON     CLOUDY    32  28  85 NW13      30.15S WCI  22
WRAY           FAIR      34  32  93 W12       30.15S WCI  25
YUMA           PTSUNNY   30  28  93 W10       30.14S WCI  21
STERLING       CLOUDY    36  23  60 NW7       30.14F
HOLYOKE        FAIR      36  32  87 W9        30.12F
FORT MORGAN    CLOUDY    31  29  92 W5        30.18R WCI  26
$$

COZ086-089-092>099-141300-
...SOUTHEAST COLORADO...

CITY           SKY/WX    TMP DP  RH WIND       PRES   REMARKS
PUEBLO         FLURRIES  33  30  88 N3        30.19R
LA JUNTA       LGT SNOW  33  31  92 N7        30.20R WCI  27
LAMAR          LGT SNOW  32  30  92 N6        30.18R FOG     WCI  26
SPRINGFIELD      N/A     34  19  54 N14       30.13R WCI  25
$$




USA.gov is the U.S. government's official web portal to all federal, state and local government web resources and services.